• In Romania
  • List of Countries
  • For 7 days
  • Water Temperature
  • Satellite Maps
  • Weather Map
  • Weather Widgets
  • user-avatar
    Login

    Hourly Weather Moiseevo

    Today, 14 November, Wednesday

    Time Temperature Precipitation Wind Pressure Humidity
    00:00 -8°C° 0 mm 3 mps 767 mmHg 33%
    01:00 -8°C° 0 mm 3 mps 767 mmHg 33%
    02:00 -8°C° 0 mm 3 mps 767 mmHg 34%
    03:00 -9°C° 0 mm 3 mps 767 mmHg 38%
    04:00 -9°C° 0 mm 3 mps 766 mmHg 39%
    05:00 -9°C° 0 mm 3 mps 766 mmHg 39%
    06:00 -9°C° 0 mm 3 mps 766 mmHg 40%
    07:00 -9°C° 0 mm 3 mps 765 mmHg 39%
    08:00 -10°C° 0 mm 4 mps 765 mmHg 38%
    09:00 -9°C° 0 mm 4 mps 765 mmHg 36%
    10:00 -8°C° 0 mm 4 mps 765 mmHg 36%
    11:00 -7°C° 0 mm 4 mps 764 mmHg 35%
    12:00 -4°C° 0 mm 4 mps 764 mmHg 35%
    13:00 -4°C° 0 mm 4 mps 764 mmHg 36%
    14:00 -4°C° 0 mm 4 mps 763 mmHg 38%
    15:00 -3°C° 0 mm 4 mps 763 mmHg 39%
    16:00 -4°C° 0 mm 4 mps 763 mmHg 42%
    17:00 -4°C° 0 mm 4 mps 763 mmHg 44%
    18:00 -5°C° 0 mm 4 mps 763 mmHg 47%
    19:00 -5°C° 0 mm 4 mps 763 mmHg 44%
    20:00 -5°C° 0 mm 4 mps 763 mmHg 41%
    21:00 -5°C° 0 mm 4 mps 763 mmHg 39%
    22:00 -7°C° 0 mm 4 mps 763 mmHg 36%
    23:00 -7°C° 0 mm 4 mps 763 mmHg 34%

    Tomorrow, 15 November, Thursday

    Time Temperature Precipitation Wind Pressure Humidity
    00:00 -6°C° 0 mm 3 mps 763 mmHg 32%
    01:00 -6°C° 0 mm 3 mps 763 mmHg 32%
    02:00 -7°C° 0 mm 3 mps 763 mmHg 32%
    03:00 -7°C° 0 mm 3 mps 763 mmHg 31%
    04:00 -7°C° 0 mm 3 mps 763 mmHg 32%
    05:00 -7°C° 0 mm 3 mps 763 mmHg 32%
    06:00 -7°C° 0 mm 3 mps 763 mmHg 32%
    07:00 -7°C° 0 mm 3 mps 763 mmHg 31%
    08:00 -7°C° 0 mm 3 mps 764 mmHg 30%
    09:00 -6°C° 0 mm 3 mps 764 mmHg 29%
    10:00 -5°C° 0 mm 3 mps 764 mmHg 27%
    11:00 -4°C° 0 mm 3 mps 764 mmHg 25%
    12:00 -2°C° 0 mm 3 mps 764 mmHg 23%
    13:00 -2°C° 0 mm 3 mps 764 mmHg 23%
    14:00 -2°C° 0 mm 3 mps 764 mmHg 24%
    15:00 -2°C° 0 mm 4 mps 764 mmHg 24%
    16:00 -2°C° 0 mm 3 mps 764 mmHg 26%
    17:00 -4°C° 0 mm 3 mps 765 mmHg 28%
    18:00 -5°C° 0 mm 3 mps 765 mmHg 30%
    19:00 -5°C° 0 mm 3 mps 765 mmHg 30%
    20:00 -5°C° 0 mm 3 mps 765 mmHg 31%
    21:00 -5°C° 0 mm 3 mps 766 mmHg 31%
    22:00 -6°C° 0 mm 3 mps 766 mmHg 31%
    23:00 -6°C° 0 mm 3 mps 766 mmHg 31%

    Day after tomorrow, 16 November, Friday

    Time Temperature Precipitation Wind Pressure Humidity
    00:00 -6°C° 0 mm 3 mps 766 mmHg 32%
    01:00 -6°C° 0 mm 3 mps 766 mmHg 31%
    02:00 -6°C° 0 mm 3 mps 767 mmHg 31%
    03:00 -6°C° 0 mm 3 mps 767 mmHg 31%
    04:00 -7°C° 0 mm 3 mps 767 mmHg 30%
    05:00 -7°C° 0 mm 3 mps 767 mmHg 30%
    06:00 -7°C° 0 mm 3 mps 767 mmHg 29%
    07:00 -6°C° 0 mm 3 mps 767 mmHg 27%
    08:00 -7°C° 0 mm 4 mps 768 mmHg 26%
    09:00 -7°C° 0 mm 4 mps 768 mmHg 24%
    10:00 -4°C° 0 mm 4 mps 768 mmHg 23%
    11:00 -3°C° 0 mm 4 mps 768 mmHg 21%
    12:00 -2°C° 0 mm 4 mps 768 mmHg 19%
    13:00 -2°C° 0 mm 4 mps 768 mmHg 20%
    14:00 -2°C° 0 mm 4 mps 768 mmHg 21%
    15:00 -1°C° 0 mm 3 mps 767 mmHg 22%
    16:00 -2°C° 0 mm 3 mps 767 mmHg 24%
    17:00 -2°C° 0 mm 3 mps 767 mmHg 26%
    18:00 -4°C° 0 mm 3 mps 767 mmHg 28%
    19:00 -5°C° 0 mm 3 mps 767 mmHg 28%
    20:00 -5°C° 0 mm 3 mps 767 mmHg 28%
    21:00 -5°C° 0 mm 3 mps 768 mmHg 28%
    22:00 -5°C° 0 mm 3 mps 767 mmHg 28%
    23:00 -5°C° 0 mm 3 mps 767 mmHg 28%

    17 November, Saturday

    Time Temperature Precipitation Wind Pressure Humidity
    00:00 -5°C° 0 mm 3 mps 767 mmHg 28%
    01:00 -6°C° 0 mm 3 mps 767 mmHg 28%
    02:00 -6°C° 0 mm 3 mps 767 mmHg 28%
    03:00 -6°C° 0 mm 3 mps 767 mmHg 29%
    04:00 -6°C° 0 mm 3 mps 767 mmHg 29%
    05:00 -6°C° 0 mm 3 mps 766 mmHg 29%
    06:00 -6°C° 0 mm 3 mps 766 mmHg 29%
    07:00 -6°C° 0 mm 3 mps 766 mmHg 28%
    08:00 -5°C° 0 mm 2 mps 766 mmHg 27%
    09:00 -4°C° 0 mm 2 mps 766 mmHg 26%
    10:00 -3°C° 0 mm 2 mps 765 mmHg 24%
    11:00 -2°C° 0 mm 2 mps 765 mmHg 22%
    12:00 +1°C° 0 mm 2 mps 765 mmHg 20%
    13:00 +1°C° 0 mm 2 mps 764 mmHg 21%
    14:00 +1°C° 0 mm 1 mps 764 mmHg 23%
    15:00 +1°C° 0 mm 1 mps 763 mmHg 24%
    16:00 +1°C° 0 mm 1 mps 763 mmHg 25%
    17:00 0°C° 0 mm 1 mps 762 mmHg 25%
    18:00 -1°C° 0 mm 1 mps 762 mmHg 26%
    19:00 -1°C° 0 mm 1 mps 761 mmHg 25%
    20:00 -1°C° 0 mm 1 mps 761 mmHg 25%
    21:00 -2°C° 0 mm 0 mps 760 mmHg 25%
    22:00 -3°C° 0 mm 0 mps 760 mmHg 25%
    23:00 -2°C° 0 mm 1 mps 759 mmHg 25%

    18 November, Sunday

    Time Temperature Precipitation Wind Pressure Humidity
    00:00 -2°C° 0 mm 1 mps 758 mmHg 25%
    01:00 -2°C° 0 mm 1 mps 758 mmHg 26%
    02:00 -2°C° 0 mm 1 mps 757 mmHg 27%
    03:00 -5°C° 0 mm 2 mps 757 mmHg 28%
    04:00 -5°C° 0 mm 2 mps 756 mmHg 29%
    05:00 -5°C° 0 mm 2 mps 755 mmHg 30%
    06:00 -5°C° 0 mm 2 mps 755 mmHg 31%
    07:00 -5°C° 0 mm 2 mps 754 mmHg 31%
    08:00 -5°C° 0 mm 2 mps 754 mmHg 30%
    09:00 -4°C° 0 mm 2 mps 753 mmHg 30%
    10:00 -3°C° 0 mm 2 mps 753 mmHg 30%
    11:00 -3°C° 0 mm 2 mps 753 mmHg 29%
    12:00 -2°C° 0 mm 3 mps 752 mmHg 28%
    13:00 -2°C° 0 mm 2 mps 752 mmHg 30%
    14:00 -1°C° 0 mm 2 mps 752 mmHg 32%
    15:00 -1°C° 0 mm 2 mps 752 mmHg 34%
    16:00 -2°C° 0 mm 2 mps 752 mmHg 40%
    17:00 -2°C° 0 mm 2 mps 751 mmHg 45%
    18:00 -3°C° 0 mm 2 mps 751 mmHg 51%
    19:00 -3°C° 0 mm 2 mps 751 mmHg 58%
    20:00 -3°C° 0 mm 2 mps 751 mmHg 65%
    21:00 -3°C° 0 mm 2 mps 751 mmHg 72%
    22:00 -3°C° 0 mm 2 mps 751 mmHg 78%
    23:00 -4°C° 0 mm 2 mps 751 mmHg 83%

    19 November, Monday

    Time Temperature Precipitation Wind Pressure Humidity
    00:00 -4°C° 0 mm 2 mps 751 mmHg 88%
    01:00 -3°C° 0.1 mm 2 mps 752 mmHg 89%
    02:00 -3°C° 0.1 mm 2 mps 752 mmHg 90%
    03:00 -3°C° 0.1 mm 2 mps 752 mmHg 91%
    04:00 -3°C° 0.1 mm 2 mps 752 mmHg 90%
    05:00 -3°C° 0.1 mm 2 mps 752 mmHg 88%
    06:00 -4°C° 0.1 mm 3 mps 752 mmHg 87%
    07:00 -4°C° 0.1 mm 3 mps 753 mmHg 84%
    08:00 -4°C° 0.1 mm 3 mps 753 mmHg 81%
    09:00 -2°C° 0.1 mm 3 mps 753 mmHg 78%
    10:00 -2°C° 0.1 mm 3 mps 754 mmHg 76%
    11:00 -2°C° 0.1 mm 4 mps 754 mmHg 74%
    12:00 -2°C° 0.1 mm 4 mps 754 mmHg 72%
    13:00 -1°C° 0.1 mm 3 mps 754 mmHg 74%
    14:00 -1°C° 0.1 mm 3 mps 755 mmHg 76%
    15:00 -1°C° 0.1 mm 3 mps 755 mmHg 78%
    16:00 -1°C° 0.1 mm 3 mps 755 mmHg 81%
    17:00 -1°C° 0.1 mm 3 mps 755 mmHg 85%
    18:00 -1°C° 0.1 mm 3 mps 755 mmHg 89%
    19:00 -2°C° 0.1 mm 3 mps 755 mmHg 88%
    20:00 -2°C° 0.1 mm 3 mps 756 mmHg 88%
    21:00 -2°C° 0.1 mm 3 mps 756 mmHg 87%
    22:00 -2°C° 0.1 mm 3 mps 756 mmHg 86%
    23:00 -2°C° 0.1 mm 3 mps 756 mmHg 85%
    Show more